Simultaneous Nadir Overpasses (SNOs) Predictions

Prediction of SNOs between FY3D and AQUA Satellite Orbit:

Table of predicted SNOs for the next 14.0 days since TLE Epoch: 12/5/2020
Index Date (FY3D) Time (FY3D) Lat,Lon (FY3D) SZA (FY3D ) Date (AQUA) Time (AQUA) Lat,Lon (AQUA) SZA (AQUA ) Distance(km) Time Diff (sec)
1 12/07/2020 00:29:59 -49.42,-153.92 38.67 12/07/2020 00:30:58 -49.49,-154.22 38.68 23.11 59
2 12/07/2020 01:20:58 48.42, 12.97 142.05 12/07/2020 01:20:40 48.42, 13.00 142.07 1.78 18
3 12/07/2020 01:56:55 -75.61, -42.70 81.57 12/07/2020 01:55:42 -76.05, -40.37 81.22 80.26 73
4 12/09/2020 16:46:11 -49.90, -37.78 38.65 12/09/2020 16:47:18 -49.95, -38.15 38.62 26.66 67
5 12/09/2020 17:37:28 47.87, 128.67 142.80 12/09/2020 17:37:17 47.87, 128.66 142.83 0.68 11
6 12/09/2020 18:18:18 -79.28, -17.18 65.51 12/09/2020 18:17:04 -79.66, -18.54 65.25 50.82 74
7 12/12/2020 09:54:21 46.05,-116.15 144.38 12/12/2020 09:54:16 46.05,-116.15 144.40 0.49 5
8 12/12/2020 10:39:28 -65.30, 62.90 50.74 12/12/2020 10:38:14 -65.38, 62.54 50.55 18.82 74
9 12/15/2020 02:10:41 46.13, -0.19 144.63 12/15/2020 02:10:43 46.13, -0.24 144.66 3.91 2
10 12/15/2020 02:58:40 -55.77, 171.66 42.47 12/15/2020 02:57:29 -55.76, 171.65 42.33 0.18 71
11 12/17/2020 18:26:55 46.56, 115.90 144.61 12/17/2020 18:27:04 46.55, 115.80 144.66 7.98 9



Historial Predications of SNOs between FY3D and AQUA
